[TLELIST] Archives

 

[list_settings.list_name] Current TLEs

October 10th 2013 PDT

HST 1 20580U 90037B 13283.00674197 .00001654 00000-0 10473-3 0 3498 2 20580 028.4700 239.9203 0003209 130.9162 297.9742 15.03994410 86990 ISS (ZARYA) 1 25544U 98067A 13283.39651319 .00010979 00000-0 20337-3 0 7772 2 25544 051.6511 257.4426 0002718 015.8578 145.5000 15.49532023852579 CXO 1 25867U 99040B 13284.28782675 .00000199 00000-0 00000+0 0 9609 2 25867 076.0620 332.9243 8447292 276.5891 359.8126 00.37802515 10973 ____________________________________________________________________ These 2-Line ...Continue Reading

[list_settings.list_name] Current TLEs

October 9th 2013 PDT

HST 1 20580U 90037B 13281.35833523 .00001711 00000-0 10880-3 0 3489 2 20580 028.4701 250.7321 0003263 114.3038 011.9332 15.03982959 86759 ISS (ZARYA) 1 25544U 98067A 13282.42686838 .00008565 00000-0 16062-3 0 7700 2 25544 051.6505 262.2428 0002637 013.5500 135.2868 15.49504057852426 CXO 1 25867U 99040B 13284.28782675 .00000199 00000-0 00000+0 0 9609 2 25867 076.0620 332.9243 8447292 276.5891 359.8126 00.37802515 10973 ____________________________________________________________________ These 2-Line ...Continue Reading

[list_settings.list_name] Current TLEs

October 8th 2013 PDT

HST 1 20580U 90037B 13280.15730213 .00001450 00000-0 90314-4 0 3478 2 20580 028.4702 258.6095 0003318 101.5582 349.0607 15.03979793 86569 ISS (ZARYA) 1 25544U 98067A 13281.39547289 .00005958 00000-0 11432-3 0 7632 2 25544 051.6503 267.3467 0002570 007.4170 144.3040 15.49478858852268 CXO 1 25867U 99040B 13284.28782675 .00000199 00000-0 00000+0 0 9609 2 25867 076.0620 332.9243 8447292 276.5891 359.8126 00.37802515 10973 ____________________________________________________________________ These 2-Line ...Continue Reading

[list_settings.list_name] Current TLEs

October 7th 2013 PDT

HST 1 20580U 90037B 13280.15730213 .00001450 00000-0 90314-4 0 3478 2 20580 028.4702 258.6095 0003318 101.5582 349.0607 15.03979793 86569 ISS (ZARYA) 1 25544U 98067A 13280.42885959 .00005876 00000-0 11291-3 0 7579 2 25544 051.6505 272.1308 0002430 003.5825 152.7127 15.49465980852112 CXO 1 25867U 99040B 13281.64281177 .00000169 00000-0 00000+0 0 9592 2 25867 076.0523 333.0609 8450157 276.5850 359.8889 00.37803545 10961 ____________________________________________________________________ These 2-Line ...Continue Reading

[list_settings.list_name] Current TLEs

October 6th 2013 PDT

HST 1 20580U 90037B 13278.43957977 .00001546 00000-0 97123-4 0 3464 2 20580 028.4702 269.8755 0003343 086.0124 045.9740 15.03974858 86313 ISS (ZARYA) 1 25544U 98067A 13279.39610016 .00006239 00000-0 11944-3 0 7505 2 25544 051.6503 277.2442 0002289 358.2134 153.4950 15.49454138851956 CXO 1 25867U 99040B 13281.64281177 .00000169 00000-0 00000+0 0 9592 2 25867 076.0523 333.0609 8450157 276.5850 359.8889 00.37803545 10961 ____________________________________________________________________ These 2-Line ...Continue Reading

[list_settings.list_name] Current TLEs

October 5th 2013 PDT

HST 1 20580U 90037B 13277.16885579 .00001497 00000-0 93692-4 0 3452 2 20580 028.4702 278.2100 0003387 073.6713 004.6578 15.03972662 86115 ISS (ZARYA) 1 25544U 98067A 13278.37605324 -.00020343 00000-0 -35642-3 0 7435 2 25544 051.6497 282.2927 0002678 352.4971 225.6211 15.49442120851791 CXO 1 25867U 99040B 13279.00023157 .00000197 00000-0 00000+0 0 9581 2 25867 076.0391 333.2293 8451869 276.5773 000.2880 00.37806758 10956 ____________________________________________________________________ These 2-Line ...Continue Reading

[list_settings.list_name] Current TLEs

October 4th 2013 PDT

HST 1 20580U 90037B 13277.16885579 .00001497 00000-0 93692-4 0 3452 2 20580 028.4702 278.2100 0003387 073.6713 004.6578 15.03972662 86115 ISS (ZARYA) 1 25544U 98067A 13277.27318287 .00003060 00000-0 62775-4 0 7345 2 25544 051.6502 287.7511 0002324 347.8082 194.4844 15.49421216851626 CXO 1 25867U 99040B 13279.00023157 .00000197 00000-0 00000+0 0 9581 2 25867 076.0391 333.2293 8451869 276.5773 000.2880 00.37806758 10956 ____________________________________________________________________ These 2-Line ...Continue Reading

[list_settings.list_name] Current TLEs

October 3rd 2013 PDT

HST 1 20580U 90037B 13275.45619910 .00002396 00000-0 15723-3 0 3442 2 20580 028.4703 289.4430 0003420 056.6110 090.5967 15.03971566 85865 ISS (ZARYA) 1 25544U 98067A 13276.49470451 -.00004137 00000-0 -66005-4 0 7281 2 25544 051.6492 291.6049 0002331 000.8269 156.3126 15.49401745851507 CXO 1 25867U 99040B 13276.35654312 .00000313 00000-0 00000+0 0 9578 2 25867 076.0234 333.4097 8451308 276.5844 000.4569 00.37803015 10941 ____________________________________________________________________ These 2-Line ...Continue Reading

[list_settings.list_name] Current TLEs

October 2nd 2013 PDT

HST 1 20580U 90037B 13274.17862810 .00001787 00000-0 11423-3 0 3434 2 20580 028.4704 297.8223 0003452 042.7374 013.7253 15.03961743 85661 ISS (ZARYA) 1 25544U 98067A 13275.46229197 .00006958 00000-0 12724-3 0 7195 2 25544 051.6487 296.7183 0003439 102.6618 050.5466 15.50570719851349 CXO 1 25867U 99040B 13276.35654312 .00000313 00000-0 00000+0 0 9578 2 25867 076.0234 333.4097 8451308 276.5844 000.4569 00.37803015 10941 ____________________________________________________________________ These 2-Line ...Continue Reading

[list_settings.list_name] Current TLEs

October 1st 2013 PDT

HST 1 20580U 90037B 13274.17862810 .00001787 00000-0 11423-3 0 3434 2 20580 028.4704 297.8223 0003452 042.7374 013.7253 15.03961743 85661 ISS (ZARYA) 1 25544U 98067A 13274.44115741 .00007031 00000-0 12857-3 0 7124 2 25544 051.6485 301.7771 0003363 095.6021 113.8368 15.50554530851181 CXO 1 25867U 99040B 13276.35654312 .00000313 00000-0 00000+0 0 9578 2 25867 076.0234 333.4097 8451308 276.5844 000.4569 00.37803015 10941 ____________________________________________________________________ These 2-Line ...Continue Reading
  • This mailing list is a public mailing list - anyone may join or leave, at any time.
  • This mailing list is announce-only.

International Space Station (ISS) / Hubble Space Telescope (HST) / Chandra X-Ray Observatory Orbital Data via EMAIL

Privacy Policy:

Private list